Regional Weather Roundup
Issued by NWS

Home | Current Version | Previous Version | Text Only | Print | Product List | Glossary On
Versions: 1 2 3 4 5 6 7 8 9 10 11 12 13 14 15 16 17 18 19 20 21 22 23 24 25 26 27 28 29 30 31 32 33 34 35 36 37 38 39 40 41 42 43 44 45 46 47 48 49 50
000
ASUS43 KLOT 200410
RWRIL

ILLINOIS REGIONAL WEATHER ROUNDUP
NATIONAL WEATHER SERVICE CHICAGO/ROMEOVILLE IL
1100 PM CDT TUE AUG 19 2014

NOTE: "FAIR" INDICATES FEW OR NO CLOUDS BELOW 12,000 FEET WITH NO
SIGNIFICANT WEATHER AND/OR OBSTRUCTIONS TO VISIBILITY.

* THESE STATIONS ARE NOT UNDER NWS QUALITY CONTROL. THEY ALSO MAY NOT
  REPORT WEATHER SUCH AS PRECIPITATION OR FOG.

ILZ001-002-007-009-015-016-024-200500-
NORTHWEST ILLINOIS

CITY           SKY/WX    TMP DP  RH WIND       PRES   REMARKS
MOLINE         CLEAR     67  64  90 CALM      29.81R
STERLING*      CLEAR     66  61  82 W5        29.80S
SAVANNA*       CLEAR     70  62  76 CALM      29.81R
$$

ILZ003-004-008-010-011-017-018-200500-
NORTH CENTRAL ILLINOIS

CITY           SKY/WX    TMP DP  RH WIND       PRES   REMARKS
ROCKFORD       CLEAR     67  62  84 S3        29.80R
FREEPORT*      CLEAR     68  64  87 W5        29.82S
ROCHELLE*      CLEAR     66  62  89 CALM      29.81R
DE KALB*       CLEAR     67  62  84 W6        29.81R
PERU*          CLEAR     69  64  83 W8        29.81R
$$

ILZ005-006-012>014-019>023-200500-
NORTHEAST ILLINOIS

CITY           SKY/WX    TMP DP  RH WIND       PRES   REMARKS
CHICAGO-OHARE  PTCLDY    72  62  71 W6        29.77R
CHICAGO-MIDWAY PTCLDY    77  65  66 W6        29.77R
AURORA         CLEAR     66  63  90 W5        29.79R
LANSING*       CLEAR     72  67  85 W5        29.78S
JOLIET*        CLEAR     67  65  93 CALM      29.80R
WAUKEGAN       CLEAR     66  64  93 W3        29.76R
DUPAGE AIRPORT CLEAR     71  63  75 W5        29.78R
KANKAKEE*      PTCLDY    68  66  94 SW5       29.80S
WHEELING       CLEAR     73  66  78 W5        29.78R
MORRIS*        CLEAR     69  67  93 W3        29.79R
ROMEOVILLE*    CLEAR     70  66  88 W3        29.79S
NORTHERLY ISL    N/A     77  65  66 W3          N/A
$$

LMZ740>746-200500-
SOUTHERN LAKE MICHIGAN

STATION/POSITION SKY/WX   TEMP    WIND        PRES    VSBY  WAVE
                          AIR SEA DIR/SP/G                  HT/PER
                          (F)     (DEG/KT/KT) (MB)    (MI)  (FT/S)
SOUTHERN BUOY              67 66   CALM  /  2 1007.4R         1/ 4
WAUKEGAN HARBOR            73      CALM  /  4   N/A
HARRISON CRIB              76     280/  9/ 10   N/A
BURNHAM HARBOR             76     290/  4/  7   N/A
CALUMET HARBOR             76     240/  2/  5 1007.1R
BURNS HARBOR               75     220/  7/ 12   N/A
MICHIGAN CITY              74     250/  9/ 11   N/A
MICHIGAN CITY 6N           73 70  220/  6/  8   N/A           1/ 2
ST. JOSEPH                 71 70  180/ 10/ 14   N/A           2/ 3
$$

ILZ025>027-034>036-040-047-049-050-058-095>099-200500-
WEST-CENTRAL ILLINOIS

CITY           SKY/WX    TMP DP  RH WIND       PRES   REMARKS
QUINCY         PTCLDY    74  71  91 CALM      29.83R
GALESBURG*     CLEAR     66  64  92 CALM      29.83R
MACOMB*        CLEAR     68  67  98 W5        29.85R
JACKSONVILLE*  CLEAR     74  73  94 SW3       29.84S
PITTSFIELD*    CLEAR     72  70  92 CALM      29.85S
$$

ILZ028>032-037-038-041>044-048-051>054-059>061-200500-
CENTRAL ILLINOIS

CITY           SKY/WX    TMP DP  RH WIND       PRES   REMARKS
PONTIAC        CLEAR     72  70  94 CALM      29.80S
DECATUR        CLEAR     72  69  90 SW6       29.83S
PEORIA         CLEAR     74  69  85 SW5       29.82R
LACON*         CLEAR     71  67  88 CALM      29.80S
LINCOLN*       CLEAR     73  69  86 CALM      29.79S
SPRINGFIELD    CLEAR     73  71  93 SW3       29.83R
TAYLORVILLE    CLEAR     70  68  94 S5        29.83S
$$

ILZ033-039-045-046-055>057-062-063-200500-
EAST-CENTRAL ILLINOIS

CITY           SKY/WX    TMP DP  RH WIND       PRES   REMARKS
CHAMPAIGN      CLEAR     69  66  90 W5        29.83R
DANVILLE*      LGT RAIN  68  67  98 CALM      29.80S
RANTOUL*       CLEAR     73  67  82 W5        29.83R
MATTOON        CLEAR     73  69  87 W3        29.83R
PARIS*         MOCLDY    73  72  95 W5        29.84R
$$

ILZ079-100>102-200500-
SOUTHWEST ILLINOIS

CITY           SKY/WX    TMP DP  RH WIND       PRES   REMARKS
ALTON          CLEAR     71  71 100 CALM      29.84S
BELLEVILLE     PTCLDY    75  73  94 CALM      29.83S FOG
CAHOKIA*       CLEAR     76  71  85 S5        29.83R
SPARTA*        CLEAR     76  72  87 SW3       29.84S
$$

ILZ064>066-069>071-074>076-080>082-084>086-088>090-092>094-200500-
SOUTH-CENTRAL ILLINOIS

CITY           SKY/WX    TMP DP  RH WIND       PRES   REMARKS
CARBONDALE     CLEAR     70  67  90 S3        29.84S
CAIRO*           N/A     72  68  88 CALM      29.85S
MARION         CLEAR     72  68  88 S5        29.85S
MT. VERNON     CLEAR     73  66  78 CALM      29.85S
CENTRALIA*     CLEAR     71  68  91 S3        29.84S
SALEM*         CLEAR     76  74  94 CALM      29.85R
$$

ILZ067-068-072-073-078-083-087-091-200500-
SOUTHEAST ILLINOIS

CITY           SKY/WX    TMP DP  RH WIND       PRES   REMARKS
LAWRENCEVILLE  CLEAR     75  74  96 SW5       29.83S FOG
FLORA*         CLEAR     72  72  98 SW3       29.84S FOG
FAIRFIELD*     CLEAR     75  73  94 MISG      29.84R
HARRISBURG*    CLEAR     69  69 100 CALM      29.86S
ROBINSON*      PTCLDY    75  74  97 SW6       29.84R
CARMI*         CLEAR     73  70  88 SW6       29.84S
$$

ABBREVIATIONS USED IN REMARKS
   TC - TEMPERATURE IN CELSIUS
  WCI - WIND CHILL INDEX
   HX - HEAT INDEX
  VSB - VISIBILITY
$$




USA.gov is the U.S. government's official web portal to all federal, state and local government web resources and services.